Tillbaka till svenska Fidonet
English   Information   Debug  
FILM   0/18
FNEWS_PUBLISH   4983
FN_SYSOP   42232
FN_SYSOP_OLD1   71952
FTP_FIDO   0/2
FTSC_PUBLIC   0/13976
FUNNY   0/4886
GENEALOGY.EUR   0/71
GET_INFO   105
GOLDED   0/408
HAM   0/16726
HOLYSMOKE   0/6791
HOT_SITES   0/1
HTMLEDIT   0/71
HUB203   466
HUB_100   264
HUB_400   39
HUMOR   0/29
IC   0/2851
INTERNET   0/424
INTERUSER   0/3
IP_CONNECT   719
JAMNNTPD   0/233
JAMTLAND   0/47
KATTY_KORNER   0/41
LAN   0/16
LINUX-USER   0/19
LINUXHELP   0/1155
LINUX   0/22392
LINUX_BBS   0/957
mail   18.68
mail_fore_ok   249
MENSA   0/341
MODERATOR   0/102
MONTE   0/992
MOSCOW_OKLAHOMA   0/1245
MUFFIN   0/783
MUSIC   0/321
N203_STAT   938
N203_SYSCHAT   313
NET203   321
NET204   69
NET_DEV   0/10
NORD.ADMIN   0/101
NORD.CHAT   0/2572
NORD.FIDONET   189
NORD.HARDWARE   0/28
NORD.KULTUR   0/114
NORD.PROG   0/32
NORD.SOFTWARE   0/88
NORD.TEKNIK   0/58
NORD   0/453
OCCULT_CHAT   0/93
OS2BBS   0/787
OS2DOSBBS   0/580
OS2HW   0/42
OS2INET   0/37
OS2LAN   0/134
OS2PROG   0/36
OS2REXX   0/113
OS2USER-L   207
OS2   0/4831
OSDEBATE   0/18996
PASCAL   0/490
PERL   0/457
PHP   0/45
POINTS   0/405
POLITICS   0/29554
POL_INC   0/14731
PSION   103
R20_ADMIN   1133
R20_AMATORRADIO   0/2
R20_BEST_OF_FIDONET   16
R20_CHAT   0/897
R20_DEPP   0/3
R20_DEV   400
R20_ECHO2   1891
R20_ECHOPRES   0/35
R20_ESTAT   0/719
R20_FIDONETPROG...
...RAM.MYPOINT
  0/2
R20_FIDONETPROGRAM   0/22
R20_FIDONET   0/248
R20_FILEFIND   0/24
R20_FILEFOUND   0/22
R20_HIFI   0/3
R20_INFO2   3783
R20_INTERNET   0/12940
R20_INTRESSE   0/60
R20_INTR_KOM   0/99
R20_KANDIDAT.CHAT   42
R20_KANDIDAT   28
R20_KOM_DEV   112
R20_KONTROLL   0/13360
R20_KORSET   0/18
R20_LOKALTRAFIK   0/24
R20_MODERATOR   0/1852
R20_NC   76
R20_NET200   245
R20_NETWORK.OTH...
...ERNETS
  0/13
R20_OPERATIVSYS...
...TEM.LINUX
  0/44
R20_PROGRAMVAROR   0/1
R20_REC2NEC   534
R20_SFOSM   0/341
R20_SF   0/108
R20_SPRAK.ENGLISH   0/1
R20_SQUISH   107
R20_TEST   2
R20_WORST_OF_FIDONET   20
RAR   0/9
RA_MULTI   106
RA_UTIL   0/162
REGCON.EUR   0/2069
REGCON   0/13
SCIENCE   0/1206
SF   0/239
SHAREWARE_SUPPORT   0/5146
SHAREWRE   0/14
SIMPSONS   0/169
STATS_OLD1   0/2539.065
STATS_OLD2   0/2530
STATS_OLD3   0/2395.095
STATS_OLD4   0/1692.25
SURVIVOR   0/495
SYSOPS_CORNER   0/3
SYSOP   0/84
TAGLINES   0/112
TEAMOS2   0/4530
TECH   0/2617
TEST.444   0/105
TRAPDOOR   0/19
TREK   0/755
TUB   0/290
UFO   0/40
UNIX   0/1316
USA_EURLINK   0/102
USR_MODEMS   0/1
VATICAN   0/2740
VIETNAM_VETS   0/14
VIRUS   0/378
VIRUS_INFO   0/201
VISUAL_BASIC   0/473
WHITEHOUSE   0/5187
WIN2000   0/101
WIN32   0/30
WIN95   0/4291
WIN95_OLD1   0/70272
WINDOWS   0/1517
WWB_SYSOP   0/419
WWB_TECH   0/810
ZCC-PUBLIC   0/1
ZEC   4

 
4DOS   0/134
ABORTION   0/7
ALASKA_CHAT   0/506
ALLFIX_FILE   0/1313
ALLFIX_FILE_OLD1   0/7997
ALT_DOS   0/152
AMATEUR_RADIO   0/1039
AMIGASALE   0/14
AMIGA   0/331
AMIGA_INT   0/1
AMIGA_PROG   0/20
AMIGA_SYSOP   0/26
ANIME   0/15
ARGUS   0/924
ASCII_ART   0/340
ASIAN_LINK   0/651
ASTRONOMY   0/417
AUDIO   0/92
AUTOMOBILE_RACING   0/105
BABYLON5   0/17862
BAG   135
BATPOWER   0/361
BBBS.ENGLISH   0/382
BBSLAW   0/109
BBS_ADS   0/5290
BBS_INTERNET   0/507
BIBLE   0/3563
BINKD   0/1119
BINKLEY   0/215
BLUEWAVE   0/2173
CABLE_MODEMS   0/25
CBM   0/46
CDRECORD   0/66
CDROM   0/20
CLASSIC_COMPUTER   0/378
COMICS   0/15
CONSPRCY   0/899
COOKING   42028
COOKING_OLD1   0/24719
COOKING_OLD2   0/40862
COOKING_OLD3   0/37489
COOKING_OLD4   0/35496
COOKING_OLD5   9370
C_ECHO   0/189
C_PLUSPLUS   0/31
DIRTY_DOZEN   0/201
DOORGAMES   0/2333
DOS_INTERNET   0/196
duplikat   6102
ECHOLIST   0/18295
EC_SUPPORT   0/318
ELECTRONICS   0/359
ELEKTRONIK.GER   1534
ENET.LINGUISTIC   0/13
ENET.POLITICS   0/4
ENET.SOFT   0/11701
ENET.SYSOP   34336
ENET.TALKS   0/32
ENGLISH_TUTOR   0/2000
EVOLUTION   0/1335
FDECHO   0/217
FDN_ANNOUNCE   0/7068
FIDONEWS   25122
FIDONEWS_OLD1   0/49742
FIDONEWS_OLD2   0/35949
FIDONEWS_OLD3   0/30874
FIDONEWS_OLD4   0/37224
FIDO_SYSOP   12973
FIDO_UTIL   0/180
FILEFIND   0/209
FILEGATE   0/212
Möte HAM, 16726 texter
 lista första sista föregående nästa
Text 3006, 788 rader
Skriven 2009-06-04 23:30:17 av Amsat List (1:323/120.0)
Ärende: [keps]  orb09155.amsa
=============================
[keps]  orb09155.amsa

Return-Path: <keps-bounces@amsat.org>
X-Rcpt: craig.healy@chowda.com
X-UIDL: 1244172282.7741

SB KEPS @ AMSAT  $ORB09155.O
Orbital Elements  09155.OSCAR

HR AMSAT ORBITAL ELEMENTS FOR OSCAR SATELLITES
FROM WA5QGD FORT WORTH,TX June 4, 2009
Send Subscribe/unsubscribe to KEPS at 
http://www.amsat.org/mailman/listinfo/keps
BID: ORB09155.O
TO ALL RADIO AMATEURS BT

Satellite: AO-07
Catalog number: 07530
Epoch time:      09154.60145735
Element set:    0495
Inclination:      101.4262 deg
RA of node:       179.7765 deg
Eccentricity:    0.0011526
Arg of perigee:   295.6466 deg
Mean anomaly:     064.3414 deg
Mean motion:   12.53575776 rev/day
Decay rate:       -2.7e-07 rev/day^2
Epoch rev:           58101
Checksum:              307

Satellite: FO-29
Catalog number: 24278
Epoch time:      09155.57922177
Element set:      58
Inclination:      098.5554 deg
RA of node:       031.3090 deg
Eccentricity:    0.0350875
Arg of perigee:   023.2013 deg
Mean anomaly:     338.4577 deg
Mean motion:   13.52943628 rev/day
Decay rate:       -2.8e-07 rev/day^2
Epoch rev:           63204
Checksum:              315

Satellite: SO-33
Catalog number: 25509
Epoch time:      09153.93609278
Element set:    0468
Inclination:      031.4325 deg
RA of node:       133.0751 deg
Eccentricity:    0.0354662
Arg of perigee:   213.9357 deg
Mean anomaly:     143.8106 deg
Mean motion:   14.28254611 rev/day
Decay rate:       1.02e-06 rev/day^2
Epoch rev:           55379
Checksum:              300

Satellite: RS-22
Catalog number: 27939
Epoch time:      09154.79633764
Element set:    0806
Inclination:      097.9464 deg
RA of node:       030.1526 deg
Eccentricity:    0.0013713
Arg of perigee:   170.2945 deg
Mean anomaly:     189.8518 deg
Mean motion:   14.63320039 rev/day
Decay rate:        4.6e-07 rev/day^2
Epoch rev:           30361
Checksum:              316

Satellite: VO-52
Catalog number: 28650
Epoch time:      09154.87989992
Element set:    0241
Inclination:      097.7431 deg
RA of node:       216.9009 deg
Eccentricity:    0.0028357
Arg of perigee:   073.8433 deg
Mean anomaly:     286.5901 deg
Mean motion:   14.81590878 rev/day
Decay rate:       3.54e-06 rev/day^2
Epoch rev:           22067
Checksum:              347

/EX
SB KEPS @ AMSAT  $ORB09155.D
Orbital Elements  09155.MICROS

HR AMSAT ORBITAL ELEMENTS FOR THE MICROSATS
FROM WA5QGD FORT WORTH,TX June 4, 2009
Send Subscribe/unsubscribe to KEPS at 
http://www.amsat.org/mailman/listinfo/keps
BID: ORB09155.D
TO ALL RADIO AMATEURS BT

Satellite: AO-16
Catalog number: 20439
Epoch time:      09154.92659306
Element set:    0620
Inclination:      098.2773 deg
RA of node:       123.9330 deg
Eccentricity:    0.0010338
Arg of perigee:   206.2051 deg
Mean anomaly:     153.8611 deg
Mean motion:   14.31825316 rev/day
Decay rate:        1.0e-08 rev/day^2
Epoch rev:           01125
Checksum:              261

Satellite: LO-19
Catalog number: 20442
Epoch time:      09154.91587116
Element set:    0540
Inclination:      098.2397 deg
RA of node:       131.2366 deg
Eccentricity:    0.0011468
Arg of perigee:   202.4013 deg
Mean anomaly:     157.6672 deg
Mean motion:   14.32061136 rev/day
Decay rate:        2.2e-07 rev/day^2
Epoch rev:           01141
Checksum:              263

Satellite: AO-27
Catalog number: 22825
Epoch time:      09154.91447579
Element set:    0260
Inclination:      098.4357 deg
RA of node:       108.7563 deg
Eccentricity:    0.0007594
Arg of perigee:   307.5779 deg
Mean anomaly:     052.4727 deg
Mean motion:   14.29266375 rev/day
Decay rate:       -4.9e-07 rev/day^2
Epoch rev:           81801
Checksum:              345

Satellite: IO-26
Catalog number: 22826
Epoch time:      09153.78711509
Element set:    0984
Inclination:      098.4283 deg
RA of node:       108.4191 deg
Eccentricity:    0.0008201
Arg of perigee:   307.3481 deg
Mean anomaly:     052.6948 deg
Mean motion:   14.29518592 rev/day
Decay rate:        1.8e-07 rev/day^2
Epoch rev:           81795
Checksum:              330

Satellite: GO-32
Catalog number: 25397
Epoch time:      09154.71440132
Element set:    0910
Inclination:      098.3268 deg
RA of node:       177.7768 deg
Eccentricity:    0.0000317
Arg of perigee:   340.2258 deg
Mean anomaly:     019.8903 deg
Mean motion:   14.23159392 rev/day
Decay rate:       -3.0e-08 rev/day^2
Epoch rev:           56621
Checksum:              301

Satellite: NO-44
Catalog number: 26931
Epoch time:      09154.85159991
Element set:    0184
Inclination:      067.0514 deg
RA of node:       098.6993 deg
Eccentricity:    0.0005502
Arg of perigee:   271.0258 deg
Mean anomaly:     089.0244 deg
Mean motion:   14.29558471 rev/day
Decay rate:       1.19e-06 rev/day^2
Epoch rev:           40067
Checksum:              323

Satellite: SO-50
Catalog number: 27607
Epoch time:      09154.86697272
Element set:    0901
Inclination:      064.5595 deg
RA of node:       065.5448 deg
Eccentricity:    0.0068880
Arg of perigee:   208.6257 deg
Mean anomaly:     151.1025 deg
Mean motion:   14.71438477 rev/day
Decay rate:      -1.49e-06 rev/day^2
Epoch rev:           34671
Checksum:              336

Satellite: CO-55
Catalog number: 27844
Epoch time:      09154.53994926
Element set:    0593
Inclination:      098.7119 deg
RA of node:       163.8980 deg
Eccentricity:    0.0009705
Arg of perigee:   177.8073 deg
Mean anomaly:     182.3146 deg
Mean motion:   14.20640184 rev/day
Decay rate:        3.3e-07 rev/day^2
Epoch rev:           30732
Checksum:              329

